Back to catalog

COSMOS 1325

AliveMilitaryLEO
NORAD 12980·PAYLOAD·🇷🇺 Russia

Launched Nov 28, 1981 from Plesetsk Cosmodrome

Loading…

Next Passes (next 24 hours)

TLE

FreshSource: Space-Track

Epoch: Sep 14, 2026, 08:36 UTC

1 12980U 81116F   26257.35852556 -.00000022  00000-0 -63447-4 0  9992
2 12980  73.9804 223.9017 0084745  55.5330  96.9268 12.30137572 11537

Track COSMOS 1325 in real time with AllMySat

Download on the App Store